TimeEST,TemperatureF,Dew PointF,Humidity,Sea Level PressureIn,VisibilityMPH,Wind Direction,Wind SpeedMPH,Gust SpeedMPH,PrecipitationIn,Events,Conditions,WindDirDegrees,DateUTC
12:15 AM,56.7,55.4,96,30.14,10.0,South,4.6,-,N/A,,Clear,170,2013-01-14 05:15:00
12:35 AM,56.5,55.4,96,30.14,10.0,South,4.6,-,N/A,,Clear,170,2013-01-14 05:35:00
12:55 AM,56.3,55.0,96,30.14,10.0,SSW,3.5,-,N/A,,Clear,210,2013-01-14 05:55:00
1:15 AM,55.0,54.1,97,30.15,7.0,SSW,3.5,-,N/A,,Clear,210,2013-01-14 06:15:00
1:35 AM,54.7,54.0,97,30.15,7.0,South,4.6,-,N/A,,Clear,190,2013-01-14 06:35:00
1:55 AM,54.9,54.5,99,30.15,10.0,South,4.6,-,N/A,,Clear,180,2013-01-14 06:55:00
2:15 AM,55.4,54.9,98,30.15,10.0,South,5.8,-,N/A,,Clear,180,2013-01-14 07:15:00
2:35 AM,55.4,54.7,97,30.16,10.0,SSW,5.8,-,N/A,,Clear,200,2013-01-14 07:35:00
2:55 AM,55.4,54.7,97,30.14,10.0,South,5.8,-,N/A,,Clear,190,2013-01-14 07:55:00
3:15 AM,55.4,54.7,97,30.14,10.0,South,5.8,-,N/A,,Clear,180,2013-01-14 08:15:00
3:35 AM,54.9,54.0,97,30.13,10.0,South,5.8,-,N/A,,Clear,180,2013-01-14 08:35:00
3:55 AM,54.5,53.8,97,30.13,10.0,SSW,5.8,-,N/A,,Clear,210,2013-01-14 08:55:00
4:15 AM,54.5,53.8,97,30.13,7.0,SSW,3.5,-,N/A,,Clear,210,2013-01-14 09:15:00
4:35 AM,53.1,52.7,99,30.13,5.0,Calm,Calm,-,N/A,,Clear,0,2013-01-14 09:35:00
5:15 AM,50.4,49.8,98,30.13,0.2,Calm,Calm,-,N/A,Fog,Fog,0,2013-01-14 10:15:00
5:35 AM,48.4,48.2,99,30.13,0.2,Calm,Calm,-,N/A,Fog,Fog,0,2013-01-14 10:35:00
5:55 AM,47.7,47.5,99,30.13,0.5,Calm,Calm,-,N/A,Fog,Fog,0,2013-01-14 10:55:00
6:15 AM,46.8,46.6,99,30.14,0.5,Calm,Calm,-,N/A,Fog,Fog,0,2013-01-14 11:15:00
6:35 AM,48.4,48.0,99,30.14,0.5,Calm,Calm,-,N/A,Fog,Fog,0,2013-01-14 11:35:00
6:55 AM,48.4,48.4,100,30.15,0.5,Calm,Calm,-,N/A,Fog,Fog,0,2013-01-14 11:55:00
7:15 AM,47.1,46.9,99,30.15,0.2,Calm,Calm,-,N/A,Fog,Fog,0,2013-01-14 12:15:00
7:35 AM,48.7,48.7,100,30.16,0.2,Calm,Calm,-,N/A,Fog,Fog,0,2013-01-14 12:35:00
7:55 AM,48.9,48.9,100,30.16,0.2,Calm,Calm,-,N/A,Fog,Fog,0,2013-01-14 12:55:00
8:15 AM,48.2,48.2,100,30.17,0.2,Calm,Calm,-,N/A,Fog,Fog,0,2013-01-14 13:15:00
8:35 AM,48.9,48.9,100,30.18,0.2,South,3.5,-,N/A,Fog,Fog,170,2013-01-14 13:35:00
8:55 AM,49.6,49.6,100,30.19,1.2,SSW,5.8,-,N/A,,Overcast,200,2013-01-14 13:55:00
9:15 AM,50.9,50.9,100,30.18,10.0,South,5.8,-,N/A,,Scattered Clouds,190,2013-01-14 14:15:00
9:35 AM,51.1,51.1,100,30.18,10.0,South,6.9,-,N/A,,Clear,190,2013-01-14 14:35:00
9:55 AM,51.4,51.3,99,30.19,10.0,SW,5.8,-,N/A,,Scattered Clouds,220,2013-01-14 14:55:00
10:15 AM,50.0,49.8,99,30.19,10.0,SSW,5.8,-,N/A,,Clear,210,2013-01-14 15:15:00
10:35 AM,51.4,50.5,97,30.19,10.0,SSW,9.2,-,N/A,,Clear,210,2013-01-14 15:35:00
10:55 AM,53.6,48.4,82,30.18,10.0,SSW,10.4,-,N/A,,Clear,210,2013-01-14 15:55:00
11:15 AM,54.5,48.0,79,30.17,10.0,SSW,10.4,-,N/A,,Clear,200,2013-01-14 16:15:00
11:35 AM,54.9,46.8,74,30.16,10.0,SW,10.4,-,N/A,,Clear,220,2013-01-14 16:35:00
11:55 AM,56.1,46.4,70,30.15,10.0,SSW,12.7,16.1,N/A,,Clear,200,2013-01-14 16:55:00
12:15 PM,67.3,54.9,64,30.14,10.0,SSW,16.1,-,N/A,,Clear,210,2013-01-14 17:15:00
12:35 PM,68.7,55.0,62,30.13,10.0,South,11.5,-,N/A,,Clear,190,2013-01-14 17:35:00
12:55 PM,71.6,55.9,58,30.13,10.0,SSW,11.5,-,N/A,,Clear,200,2013-01-14 17:55:00
1:15 PM,74.3,57.9,57,30.12,10.0,South,8.1,-,N/A,,Clear,190,2013-01-14 18:15:00
1:35 PM,75.2,58.3,56,30.11,10.0,SSW,10.4,-,N/A,,Scattered Clouds,210,2013-01-14 18:35:00
1:55 PM,75.4,57.6,54,30.11,10.0,SSW,11.5,-,N/A,,Clear,200,2013-01-14 18:55:00
2:15 PM,75.4,57.6,54,30.11,10.0,SSW,8.1,-,N/A,,Scattered Clouds,210,2013-01-14 19:15:00
2:35 PM,76.1,58.1,54,30.11,10.0,South,6.9,-,N/A,,Clear,190,2013-01-14 19:35:00
3:15 PM,77.5,57.9,51,30.12,10.0,WSW,5.8,-,N/A,,Scattered Clouds,250,2013-01-14 20:15:00
3:35 PM,76.1,57.6,53,30.12,10.0,SW,5.8,-,N/A,,Scattered Clouds,220,2013-01-14 20:35:00
3:55 PM,76.8,57.9,52,30.12,10.0,SSW,6.9,-,N/A,,Scattered Clouds,210,2013-01-14 20:55:00
4:15 PM,76.6,58.3,53,30.13,10.0,SSW,6.9,-,N/A,,Clear,200,2013-01-14 21:15:00
4:35 PM,76.1,58.6,55,30.13,10.0,South,5.8,-,N/A,,Clear,190,2013-01-14 21:35:00
5:15 PM,72.1,62.6,72,30.14,10.0,SSE,5.8,-,N/A,,Clear,150,2013-01-14 22:15:00
5:35 PM,70.3,62.6,76,30.15,10.0,SSE,5.8,-,N/A,,Clear,160,2013-01-14 22:35:00
5:55 PM,68.9,62.1,79,30.15,10.0,SSE,4.6,-,N/A,,Clear,160,2013-01-14 22:55:00
6:15 PM,67.5,61.7,82,30.15,10.0,SSE,4.6,-,N/A,,Clear,160,2013-01-14 23:15:00
6:35 PM,67.1,61.5,82,30.15,10.0,Calm,Calm,-,N/A,,Clear,0,2013-01-14 23:35:00
6:55 PM,66.2,61.0,83,30.16,10.0,Calm,Calm,-,N/A,,Clear,0,2013-01-14 23:55:00
7:15 PM,65.1,60.6,85,30.15,10.0,South,4.6,-,N/A,,Clear,170,2013-01-15 00:15:00
7:35 PM,64.4,59.9,85,30.15,10.0,South,3.5,-,N/A,,Clear,180,2013-01-15 00:35:00
7:55 PM,64.4,59.4,84,30.15,10.0,South,5.8,-,N/A,,Clear,190,2013-01-15 00:55:00
8:15 PM,64.4,59.0,83,30.16,10.0,South,5.8,-,N/A,,Clear,190,2013-01-15 01:15:00
8:35 PM,64.4,58.5,81,30.16,10.0,SSW,4.6,-,N/A,,Clear,200,2013-01-15 01:35:00
8:55 PM,63.9,58.5,83,30.16,10.0,South,4.6,-,N/A,,Clear,190,2013-01-15 01:55:00
9:15 PM,63.7,58.3,83,30.15,10.0,South,4.6,-,N/A,,Clear,190,2013-01-15 02:15:00
9:35 PM,63.5,58.3,83,30.14,10.0,South,5.8,-,N/A,,Clear,180,2013-01-15 02:35:00
9:55 PM,62.6,58.1,85,30.14,10.0,South,4.6,-,N/A,,Clear,180,2013-01-15 02:55:00
10:15 PM,62.6,58.1,85,30.14,10.0,South,4.6,-,N/A,,Clear,190,2013-01-15 03:15:00
10:35 PM,62.1,58.1,87,30.15,10.0,Calm,Calm,-,N/A,,Clear,0,2013-01-15 03:35:00
10:55 PM,61.3,57.7,88,30.15,10.0,South,3.5,-,N/A,,Clear,190,2013-01-15 03:55:00
11:15 PM,61.0,57.7,89,30.15,10.0,South,3.5,-,N/A,,Clear,190,2013-01-15 04:15:00
11:35 PM,60.6,57.2,88,30.15,10.0,SSW,3.5,-,N/A,,Clear,200,2013-01-15 04:35:00
11:55 PM,59.5,57.0,91,30.16,10.0,SSW,3.5,-,N/A,,Clear,200,2013-01-15 04:55:00